Time,TemperatureF,DewpointF,PressureIn,WindDirection,WindDirectionDegrees,WindSpeedMPH,WindSpeedGustMPH,Humidity,HourlyPrecipIn,Conditions,Clouds,dailyrainin,SoftwareType,DateUTC
2013-12-10 00:00:00,45.5,45.0,30.04,SW,234,0.0,0.0,98,0.00,,,0.47,Wunderground v.1.15,2013-12-10 05:00:00,
2013-12-10 00:10:00,45.5,45.0,30.04,SW,234,0.0,0.0,98,0.00,,,0.00,Wunderground v.1.15,2013-12-10 05:10:00,
2013-12-10 00:20:00,45.5,45.0,30.02,SW,234,0.0,0.0,98,0.00,,,0.00,Wunderground v.1.15,2013-12-10 05:20:00,
2013-12-10 00:30:00,45.5,45.0,30.01,SW,234,0.0,0.0,98,0.00,,,0.00,Wunderground v.1.15,2013-12-10 05:30:00,
2013-12-10 00:40:00,45.5,45.0,30.01,SW,234,0.0,0.0,98,0.00,,,0.00,Wunderground v.1.15,2013-12-10 05:40:00,
2013-12-10 00:50:00,45.5,45.0,30.01,SW,234,0.0,0.0,98,0.00,,,0.00,Wunderground v.1.15,2013-12-10 05:50:00,
2013-12-10 01:00:00,45.7,45.2,30.01,SW,234,0.0,0.0,98,0.00,,,0.00,Wunderground v.1.15,2013-12-10 06:00:00,
2013-12-10 01:10:00,45.8,45.3,30.01,SW,234,0.0,0.0,98,0.00,,,0.00,Wunderground v.1.15,2013-12-10 06:10:00,
2013-12-10 01:19:00,45.8,45.3,30.01,SW,233,0.0,0.0,98,0.00,,,0.00,Wunderground v.1.15,2013-12-10 06:19:00,
2013-12-10 01:30:00,45.8,45.3,29.99,SW,232,0.0,0.0,98,0.00,,,0.00,Wunderground v.1.15,2013-12-10 06:30:00,
2013-12-10 01:40:00,45.8,45.3,29.99,SW,232,0.0,0.0,98,0.00,,,0.00,Wunderground v.1.15,2013-12-10 06:40:00,
2013-12-10 01:50:00,46.0,45.5,29.98,SW,232,0.0,0.0,98,0.00,,,0.00,Wunderground v.1.15,2013-12-10 06:50:00,
2013-12-10 02:00:00,46.0,45.5,29.97,SW,232,0.0,0.0,98,0.00,,,0.00,Wunderground v.1.15,2013-12-10 07:00:00,
2013-12-10 02:10:00,46.1,45.6,29.97,SW,232,0.0,0.0,98,0.00,,,0.00,Wunderground v.1.15,2013-12-10 07:10:00,
2013-12-10 02:20:00,46.2,45.7,29.98,SW,232,0.0,0.0,98,0.00,,,0.00,Wunderground v.1.15,2013-12-10 07:20:00,
2013-12-10 02:30:00,46.2,45.7,29.97,SW,232,0.0,0.0,98,0.00,,,0.00,Wunderground v.1.15,2013-12-10 07:30:00,
2013-12-10 02:39:00,46.2,45.7,29.97,SW,232,0.0,0.0,98,0.00,,,0.00,Wunderground v.1.15,2013-12-10 07:39:00,
2013-12-10 02:49:00,46.2,45.7,29.97,SW,232,0.0,0.0,98,0.00,,,0.00,Wunderground v.1.15,2013-12-10 07:49:00,
2013-12-10 03:00:00,46.4,45.9,29.97,SW,232,0.0,0.0,98,0.00,,,0.00,Wunderground v.1.15,2013-12-10 08:00:00,
2013-12-10 03:10:00,46.4,45.9,29.97,SW,232,0.0,0.0,98,0.00,,,0.00,Wunderground v.1.15,2013-12-10 08:10:00,
2013-12-10 03:20:00,46.4,45.9,29.97,SW,231,0.0,0.0,98,0.00,,,0.00,Wunderground v.1.15,2013-12-10 08:20:00,
2013-12-10 03:30:00,46.4,45.9,29.96,SW,231,0.0,0.0,98,0.00,,,0.00,Wunderground v.1.15,2013-12-10 08:30:00,
2013-12-10 03:40:00,46.4,45.9,29.96,SW,231,0.0,0.0,98,0.00,,,0.00,Wunderground v.1.15,2013-12-10 08:40:00,
2013-12-10 03:50:00,46.4,45.9,29.95,SW,231,0.0,0.0,98,0.00,,,0.01,Wunderground v.1.15,2013-12-10 08:50:00,
2013-12-10 04:00:00,46.4,45.9,29.94,SW,231,0.0,0.0,98,0.00,,,0.01,Wunderground v.1.15,2013-12-10 09:00:00,
2013-12-10 04:09:00,46.4,45.9,29.94,SW,231,0.0,0.0,98,0.00,,,0.01,Wunderground v.1.15,2013-12-10 09:09:00,
2013-12-10 04:19:00,46.4,45.9,29.94,SW,231,0.0,0.0,98,0.00,,,0.01,Wunderground v.1.15,2013-12-10 09:19:00,
2013-12-10 04:30:00,46.5,46.0,29.94,SW,231,0.0,0.0,98,0.00,,,0.01,Wunderground v.1.15,2013-12-10 09:30:00,
2013-12-10 04:40:00,46.5,46.0,29.94,SW,231,0.0,0.0,98,0.00,,,0.01,Wunderground v.1.15,2013-12-10 09:40:00,
2013-12-10 04:50:00,46.5,46.0,29.93,SW,231,0.0,0.0,98,0.00,,,0.01,Wunderground v.1.15,2013-12-10 09:50:00,
2013-12-10 05:00:00,46.5,46.0,29.93,SW,231,0.0,0.0,98,0.00,,,0.01,Wunderground v.1.15,2013-12-10 10:00:00,
2013-12-10 05:10:00,46.5,46.0,29.93,SW,231,0.0,0.0,98,0.00,,,0.01,Wunderground v.1.15,2013-12-10 10:10:00,
2013-12-10 05:20:00,46.5,46.0,29.92,SW,231,0.0,0.0,98,0.00,,,0.01,Wunderground v.1.15,2013-12-10 10:20:00,
2013-12-10 05:30:00,46.5,46.0,29.91,SW,231,0.0,0.0,98,0.00,,,0.01,Wunderground v.1.15,2013-12-10 10:30:00,
2013-12-10 05:39:00,46.5,46.0,29.91,SW,231,0.0,0.0,98,0.00,,,0.01,Wunderground v.1.15,2013-12-10 10:39:00,
2013-12-10 05:50:00,46.5,46.0,29.90,SW,231,0.0,0.0,98,0.00,,,0.01,Wunderground v.1.15,2013-12-10 10:50:00,
2013-12-10 06:00:00,46.4,45.9,29.90,SW,231,0.0,0.0,98,0.00,,,0.01,Wunderground v.1.15,2013-12-10 11:00:00,
2013-12-10 06:10:00,46.5,46.0,29.90,SW,231,0.0,0.0,98,0.00,,,0.01,Wunderground v.1.15,2013-12-10 11:10:00,
2013-12-10 06:20:00,46.5,46.0,29.89,SW,231,0.0,0.0,98,0.00,,,0.01,Wunderground v.1.15,2013-12-10 11:20:00,
2013-12-10 06:30:00,46.7,46.2,29.93,SW,236,0.0,0.0,98,0.00,,,0.01,Wunderground v.1.15,2013-12-10 11:30:00,
2013-12-10 06:40:00,46.8,46.3,29.93,NW,309,0.0,0.0,98,0.00,,,0.02,Wunderground v.1.15,2013-12-10 11:40:00,
2013-12-10 06:50:00,46.8,46.3,29.93,SW,217,0.0,0.0,98,0.08,,,0.03,Wunderground v.1.15,2013-12-10 11:50:00,
2013-12-10 07:00:00,46.8,46.3,29.91,SSW,198,0.0,0.0,98,0.45,,,0.09,Wunderground v.1.15,2013-12-10 12:00:00,
2013-12-10 07:09:00,46.8,46.3,29.91,SSW,193,0.0,0.0,98,0.08,,,0.11,Wunderground v.1.15,2013-12-10 12:09:00,
2013-12-10 07:20:00,47.0,46.7,29.90,SE,136,0.0,0.0,99,0.05,,,0.12,Wunderground v.1.15,2013-12-10 12:20:00,
2013-12-10 07:30:00,47.3,47.0,29.91,SSE,162,0.0,0.0,99,0.04,,,0.12,Wunderground v.1.15,2013-12-10 12:30:00,
2013-12-10 07:39:00,47.6,47.3,29.91,South,171,0.0,0.0,99,0.00,,,0.12,Wunderground v.1.15,2013-12-10 12:39:00,
2013-12-10 07:49:00,47.9,47.6,29.91,South,181,0.0,0.0,99,0.00,,,0.12,Wunderground v.1.15,2013-12-10 12:49:00,
2013-12-10 08:00:00,48.2,47.9,29.91,South,181,0.0,0.0,99,0.00,,,0.12,Wunderground v.1.15,2013-12-10 13:00:00,
2013-12-10 08:10:00,48.5,48.2,29.91,SW,233,0.0,0.0,99,0.00,,,0.12,Wunderground v.1.15,2013-12-10 13:10:00,
2013-12-10 08:20:00,48.6,48.3,29.92,WSW,254,0.0,0.0,99,0.00,,,0.12,Wunderground v.1.15,2013-12-10 13:20:00,
2013-12-10 08:30:00,49.1,48.8,29.92,WSW,254,0.0,0.0,99,0.00,,,0.12,Wunderground v.1.15,2013-12-10 13:30:00,
2013-12-10 08:40:00,49.2,48.9,29.92,WSW,254,0.0,0.0,99,0.00,,,0.13,Wunderground v.1.15,2013-12-10 13:40:00,
2013-12-10 08:49:00,49.5,49.2,29.92,WSW,254,0.0,0.0,99,0.00,,,0.13,Wunderground v.1.15,2013-12-10 13:49:00,
2013-12-10 09:00:00,49.8,49.5,29.93,WSW,254,0.0,0.0,99,0.00,,,0.13,Wunderground v.1.15,2013-12-10 14:00:00,
2013-12-10 09:10:00,50.4,50.1,29.93,WSW,258,0.0,0.0,99,0.00,,,0.13,Wunderground v.1.15,2013-12-10 14:10:00,
2013-12-10 09:19:00,50.7,50.4,29.93,WSW,252,0.0,0.0,99,0.00,,,0.13,Wunderground v.1.15,2013-12-10 14:19:00,
2013-12-10 09:30:00,50.8,50.5,29.94,West,262,0.0,0.0,99,0.00,,,0.13,Wunderground v.1.15,2013-12-10 14:30:00,
2013-12-10 09:40:00,51.0,50.7,29.94,West,274,0.0,0.0,99,0.00,,,0.13,Wunderground v.1.15,2013-12-10 14:40:00,
2013-12-10 09:50:00,51.4,51.1,29.95,West,274,0.0,0.0,99,0.00,,,0.13,Wunderground v.1.15,2013-12-10 14:50:00,
2013-12-10 10:00:00,51.9,51.6,29.95,West,274,0.0,0.0,99,0.00,,,0.13,Wunderground v.1.15,2013-12-10 15:00:00,
2013-12-10 10:10:00,52.3,52.0,29.95,WSW,237,0.0,0.0,99,0.00,,,0.13,Wunderground v.1.15,2013-12-10 15:10:00,
2013-12-10 10:19:00,52.9,52.6,29.94,SSW,207,0.0,0.0,99,0.00,,,0.13,Wunderground v.1.15,2013-12-10 15:19:00,
2013-12-10 10:30:00,53.5,53.2,29.95,West,259,0.0,0.0,99,0.00,,,0.13,Wunderground v.1.15,2013-12-10 15:30:00,
2013-12-10 10:40:00,54.2,53.9,29.95,North,354,0.0,0.0,99,0.00,,,0.13,Wunderground v.1.15,2013-12-10 15:40:00,
2013-12-10 10:50:00,54.1,53.8,29.96,West,277,0.0,0.0,99,0.00,,,0.13,Wunderground v.1.15,2013-12-10 15:50:00,
2013-12-10 11:00:00,54.1,53.8,29.97,WNW,294,0.0,0.0,99,0.00,,,0.13,Wunderground v.1.15,2013-12-10 16:00:00,
2013-12-10 11:09:00,54.8,54.5,29.97,NNW,348,0.0,0.0,99,0.00,,,0.13,Wunderground v.1.15,2013-12-10 16:09:00,
2013-12-10 11:19:00,54.7,54.1,29.98,NW,319,0.0,0.0,98,0.00,,,0.13,Wunderground v.1.15,2013-12-10 16:19:00,
2013-12-10 11:30:00,53.8,53.0,30.00,NW,307,0.0,0.0,97,0.00,,,0.13,Wunderground v.1.15,2013-12-10 16:30:00,
2013-12-10 11:40:00,53.2,51.8,30.00,NW,326,0.0,0.0,95,0.00,,,0.13,Wunderground v.1.15,2013-12-10 16:40:00,
2013-12-10 11:49:00,53.2,52.1,30.01,WNW,298,0.0,0.0,96,0.00,,,0.13,Wunderground v.1.15,2013-12-10 16:49:00,
2013-12-10 12:00:00,54.7,54.1,30.01,NW,323,0.0,0.0,98,0.00,,,0.13,Wunderground v.1.15,2013-12-10 17:00:00,
2013-12-10 12:10:00,54.7,53.6,30.01,NNW,334,0.0,0.0,96,0.00,,,0.13,Wunderground v.1.15,2013-12-10 17:10:00,
2013-12-10 12:20:00,54.8,52.5,30.02,North,354,0.0,0.0,92,0.00,,,0.13,Wunderground v.1.15,2013-12-10 17:20:00,
2013-12-10 12:30:00,53.8,49.4,30.03,NW,315,0.0,0.0,85,0.00,,,0.13,Wunderground v.1.15,2013-12-10 17:30:00,
2013-12-10 12:40:00,54.4,48.0,30.03,NW,321,0.0,0.0,79,0.00,,,0.13,Wunderground v.1.15,2013-12-10 17:40:00,
2013-12-10 12:49:00,55.1,47.3,30.04,NNW,332,0.0,0.0,75,0.00,,,0.13,Wunderground v.1.15,2013-12-10 17:49:00,
2013-12-10 13:00:00,55.0,47.6,30.04,NW,312,0.0,0.0,76,0.00,,,0.13,Wunderground v.1.15,2013-12-10 18:00:00,
2013-12-10 13:10:00,55.0,46.9,30.04,NNW,331,0.0,0.0,74,0.00,,,0.13,Wunderground v.1.15,2013-12-10 18:10:00,
2013-12-10 13:20:00,55.1,45.5,30.05,NW,319,0.0,0.0,70,0.00,,,0.13,Wunderground v.1.15,2013-12-10 18:20:00,
2013-12-10 13:30:00,55.3,42.1,30.05,NNW,332,0.0,0.0,61,0.00,,,0.13,Wunderground v.1.15,2013-12-10 18:30:00,
2013-12-10 13:39:00,55.4,41.3,30.05,NW,323,0.0,0.0,59,0.00,,,0.13,Wunderground v.1.15,2013-12-10 18:39:00,
2013-12-10 13:49:00,55.4,42.6,30.05,NW,319,0.0,0.0,62,0.00,,,0.13,Wunderground v.1.15,2013-12-10 18:49:00,
2013-12-10 14:00:00,55.4,39.0,30.06,SSW,202,0.0,0.0,54,0.00,,,0.13,Wunderground v.1.15,2013-12-10 19:00:00,
2013-12-10 14:10:00,55.3,38.9,30.06,NNW,334,0.0,0.0,54,0.00,,,0.13,Wunderground v.1.15,2013-12-10 19:10:00,
2013-12-10 14:20:00,55.3,41.2,30.07,WNW,302,0.0,0.0,59,0.00,,,0.13,Wunderground v.1.15,2013-12-10 19:20:00,
2013-12-10 14:30:00,54.7,38.4,30.08,WNW,282,0.0,0.0,54,0.00,,,0.13,Wunderground v.1.15,2013-12-10 19:30:00,
2013-12-10 14:40:00,53.6,35.9,30.08,North,359,0.0,0.0,51,0.00,,,0.13,Wunderground v.1.15,2013-12-10 19:40:00,
2013-12-10 14:50:00,53.3,35.6,30.09,WNW,283,0.0,0.0,51,0.00,,,0.13,Wunderground v.1.15,2013-12-10 19:50:00,
2013-12-10 15:00:00,53.1,35.4,30.10,NW,314,0.0,0.0,51,0.00,,,0.13,Wunderground v.1.15,2013-12-10 20:00:00,
2013-12-10 15:09:00,52.8,35.2,30.10,North,353,0.0,0.0,51,0.00,,,0.13,Wunderground v.1.15,2013-12-10 20:09:00,
2013-12-10 15:20:00,52.2,34.6,30.11,NW,323,0.0,0.0,51,0.00,,,0.13,Wunderground v.1.15,2013-12-10 20:20:00,
2013-12-10 15:30:00,51.6,33.0,30.12,East,89,0.0,0.0,49,0.00,,,0.13,Wunderground v.1.15,2013-12-10 20:30:00,
2013-12-10 15:40:00,51.4,34.3,30.12,NNW,328,0.0,0.0,52,0.00,,,0.13,Wunderground v.1.15,2013-12-10 20:40:00,
2013-12-10 15:50:00,50.8,32.3,30.14,North,359,0.0,0.0,49,0.00,,,0.13,Wunderground v.1.15,2013-12-10 20:50:00,
2013-12-10 16:00:00,50.1,31.2,30.15,NNW,332,0.0,0.0,48,0.00,,,0.13,Wunderground v.1.15,2013-12-10 21:00:00,
2013-12-10 16:10:00,49.5,32.1,30.15,NNE,21,0.0,0.0,51,0.00,,,0.13,Wunderground v.1.15,2013-12-10 21:10:00,
2013-12-10 16:20:00,49.2,31.3,30.15,NNW,334,0.0,0.0,50,0.00,,,0.13,Wunderground v.1.15,2013-12-10 21:20:00,
2013-12-10 16:30:00,48.8,32.4,30.15,NNW,330,0.0,0.0,53,0.00,,,0.13,Wunderground v.1.15,2013-12-10 21:30:00,
2013-12-10 16:39:00,48.3,33.3,30.15,NW,321,0.0,0.0,56,0.00,,,0.13,Wunderground v.1.15,2013-12-10 21:39:00,
2013-12-10 16:50:00,47.3,33.3,30.16,North,4,0.0,0.0,58,0.00,,,0.13,Wunderground v.1.15,2013-12-10 21:50:00,
2013-12-10 17:00:00,46.1,31.3,30.17,NNW,330,0.0,0.0,56,0.00,,,0.13,Wunderground v.1.15,2013-12-10 22:00:00,
2013-12-10 17:09:00,45.2,31.7,30.17,WNW,297,0.0,0.0,59,0.00,,,0.13,Wunderground v.1.15,2013-12-10 22:09:00,
2013-12-10 17:19:00,44.3,29.6,30.17,NNW,332,0.0,0.0,56,0.00,,,0.13,Wunderground v.1.15,2013-12-10 22:19:00,
2013-12-10 17:30:00,43.2,30.2,30.18,NNW,342,0.0,0.0,60,0.00,,,0.13,Wunderground v.1.15,2013-12-10 22:30:00,
2013-12-10 17:40:00,42.3,29.8,30.18,NW,320,0.0,0.0,61,0.00,,,0.13,Wunderground v.1.15,2013-12-10 22:40:00,
2013-12-10 17:49:00,41.8,28.1,30.20,WNW,299,0.0,0.0,58,0.00,,,0.13,Wunderground v.1.15,2013-12-10 22:49:00,
2013-12-10 18:00:00,41.6,27.5,30.21,North,353,0.0,0.0,57,0.00,,,0.13,Wunderground v.1.15,2013-12-10 23:00:00,
2013-12-10 18:10:00,41.3,27.6,30.21,NW,319,0.0,0.0,58,0.00,,,0.13,Wunderground v.1.15,2013-12-10 23:10:00,
2013-12-10 18:20:00,40.9,27.7,30.22,NNE,18,0.0,0.0,59,0.00,,,0.13,Wunderground v.1.15,2013-12-10 23:20:00,
2013-12-10 18:30:00,40.5,27.7,30.23,WNW,293,0.0,0.0,60,0.00,,,0.13,Wunderground v.1.15,2013-12-10 23:30:00,
2013-12-10 18:39:00,40.1,28.1,30.23,NW,319,0.0,0.0,62,0.00,,,0.13,Wunderground v.1.15,2013-12-10 23:39:00,
2013-12-10 18:49:00,39.5,26.8,30.24,WNW,294,0.0,0.0,60,0.00,,,0.13,Wunderground v.1.15,2013-12-10 23:49:00,
2013-12-10 19:00:00,39.1,27.2,30.25,NNW,332,0.0,0.0,62,0.00,,,0.13,Wunderground v.1.15,2013-12-11 00:00:00,
2013-12-10 19:10:00,38.6,25.5,30.25,NNW,334,0.0,0.0,59,0.00,,,0.13,Wunderground v.1.15,2013-12-11 00:10:00,
2013-12-10 19:20:00,38.2,25.9,30.25,WNW,290,0.0,0.0,61,0.00,,,0.13,Wunderground v.1.15,2013-12-11 00:20:00,
2013-12-10 19:30:00,37.6,24.6,30.25,NNW,348,0.0,0.0,59,0.00,,,0.13,Wunderground v.1.15,2013-12-11 00:30:00,
2013-12-10 19:39:00,37.6,23.7,30.25,North,8,0.0,0.0,57,0.00,,,0.13,Wunderground v.1.15,2013-12-11 00:39:00,
2013-12-10 19:50:00,37.5,23.2,30.26,NNW,334,0.0,0.0,56,0.00,,,0.13,Wunderground v.1.15,2013-12-11 00:50:00,
2013-12-10 20:00:00,37.8,23.9,30.27,NNW,327,0.0,0.0,57,0.00,,,0.13,Wunderground v.1.15,2013-12-11 01:00:00,
2013-12-10 20:10:00,37.5,24.5,30.27,NNW,330,0.0,0.0,59,0.00,,,0.13,Wunderground v.1.15,2013-12-11 01:10:00,
2013-12-10 20:19:00,37.3,25.1,30.28,NNW,328,0.0,0.0,61,0.00,,,0.13,Wunderground v.1.15,2013-12-11 01:19:00,
2013-12-10 20:30:00,36.9,24.3,30.29,NNW,328,0.0,0.0,60,0.00,,,0.13,Wunderground v.1.15,2013-12-11 01:30:00,
2013-12-10 20:40:00,36.3,24.9,30.29,NNW,332,0.0,0.0,63,0.00,,,0.13,Wunderground v.1.15,2013-12-11 01:40:00,
2013-12-10 20:49:00,35.6,25.0,30.28,WNW,290,0.0,0.0,65,0.00,,,0.13,Wunderground v.1.15,2013-12-11 01:49:00,
2013-12-10 21:00:00,35.5,24.5,30.28,NNW,334,0.0,0.0,64,0.00,,,0.13,Wunderground v.1.15,2013-12-11 02:00:00,
2013-12-10 21:10:00,35.8,24.0,30.28,WNW,296,0.0,0.0,62,0.00,,,0.13,Wunderground v.1.15,2013-12-11 02:10:00,
2013-12-10 21:19:00,35.8,23.3,30.29,NW,323,0.0,0.0,60,0.00,,,0.13,Wunderground v.1.15,2013-12-11 02:19:00,
2013-12-10 21:30:00,35.8,22.9,30.30,NNW,332,0.0,0.0,59,0.00,,,0.13,Wunderground v.1.15,2013-12-11 02:30:00,
2013-12-10 21:40:00,35.6,23.9,30.30,NW,321,0.0,0.0,62,0.00,,,0.13,Wunderground v.1.15,2013-12-11 02:40:00,
2013-12-10 21:50:00,35.0,23.7,30.30,NW,317,0.0,0.0,63,0.00,,,0.13,Wunderground v.1.15,2013-12-11 02:50:00,
2013-12-10 22:00:00,34.4,23.8,30.31,NNW,332,0.0,0.0,65,0.00,,,0.13,Wunderground v.1.15,2013-12-11 03:00:00,
2013-12-10 22:09:00,34.1,23.2,30.31,NNW,334,0.0,0.0,64,0.00,,,0.13,Wunderground v.1.15,2013-12-11 03:09:00,
2013-12-10 22:20:00,34.0,23.1,30.30,NNW,332,0.0,0.0,64,0.00,,,0.13,Wunderground v.1.15,2013-12-11 03:20:00,
2013-12-10 22:30:00,33.7,22.4,30.31,WNW,295,0.0,0.0,63,0.00,,,0.13,Wunderground v.1.15,2013-12-11 03:30:00,
2013-12-10 22:40:00,33.7,21.7,30.31,NW,314,0.0,0.0,61,0.00,,,0.13,Wunderground v.1.15,2013-12-11 03:40:00,
2013-12-10 22:50:00,34.0,21.6,30.31,NW,312,0.0,0.0,60,0.00,,,0.13,Wunderground v.1.15,2013-12-11 03:50:00,
2013-12-10 23:00:00,34.0,22.7,30.31,NNW,331,0.0,0.0,63,0.00,,,0.13,Wunderground v.1.15,2013-12-11 04:00:00,
2013-12-10 23:10:00,33.7,22.4,30.31,NE,46,0.0,0.0,63,0.00,,,0.13,Wunderground v.1.15,2013-12-11 04:10:00,
2013-12-10 23:20:00,33.2,22.3,30.32,North,0,0.0,0.0,64,0.00,,,0.13,Wunderground v.1.15,2013-12-11 04:20:00,
2013-12-10 23:30:00,32.7,21.9,30.32,North,0,0.0,0.0,64,0.00,,,0.13,Wunderground v.1.15,2013-12-11 04:30:00,
2013-12-10 23:39:00,32.2,22.8,30.32,North,0,0.0,0.0,68,0.00,,,0.13,Wunderground v.1.15,2013-12-11 04:39:00,
2013-12-10 23:50:00,31.3,23.0,30.32,North,0,0.0,0.0,71,0.00,,,0.13,Wunderground v.1.15,2013-12-11 04:50:00,